Weather Roundup
Issued by NWS

Home | Current Version | Previous Version | Text Only | Print | Product List | Glossary On
Versions: 1 2 3 4 5 6 7 8 9 10 11 12 13 14 15 16 17 18 19 20 21 22 23 24 25 26 27 28 29 30 31 32 33 34 35 36 37 38 39 40 41 42 43 44 45 46 47 48 49 50
000
NZUS93 KARX 241159
HRRWXR

CURRENT HOURLY OBSERVATIONS ACROSS
MUCH OF THE UPPER MISSISSIPPI VALLEY
NATIONAL WEATHER SERVICE LA CROSSE WI
700 AM CDT FRI OCT 24 2014


...SOUTHEAST MINNESOTA...


CITY           SKY/WX    TMP DP  RH WIND       PRES   REMARKS
ROCHESTER      FOG       45  44  97 S9        29.97S VSB 1/4
ROCHESTER/MAYO FAIR      46  46  99 SE9       29.96S
WINONA         CLOUDY    52  50  93 SE5       29.99S
AUSTIN         PTCLDY    45  45 100 SE6       29.94F FOG
ALBERT LEA     PTCLDY    46  46 100 S9        29.92F
DODGE CENTER   PTCLDY    48  46  93 S10       29.94S
PRESTON        FOG       46  46  97 S9        29.98F VSB 1/4
OWATONNA       CLEAR     52  46  82 SE12      29.90F
FARIBAULT      FAIR      48  46  93 SE6       29.90F
$$

...ELSEWHERE IN MINNESOTA...


CITY           SKY/WX    TMP DP  RH WIND       PRES   REMARKS
MINNEAPOLIS    CLOUDY    47  44  90 E8        29.90F
INTNL FALLS    CLOUDY    52  42  69 SW3       29.74F
DULUTH         CLOUDY    48  45  89 S8        29.87F FOG
RED WING       MOCLDY    48  46  93 SE8       29.93F FOG
REDWOOD FALLS  MOCLDY    46  42  86 SE6       29.83F
MANKATO        PTCLDY    52  43  71 SE12      29.86F
WORTHINGTON    PTCLDY    52  48  87 S10       29.87R
FAIRMONT       PTCLDY    50  43  76 S9        29.86F
$$

...SOUTHWEST WISCONSIN...


CITY           SKY/WX    TMP DP  RH WIND       PRES   REMARKS
LA CROSSE      CLOUDY    51  50  96 S8        30.00S FOG
PRAIRIE DU CHI CLOUDY    51  50  96 E3        30.02S FOG
BOSCOBEL       CLOUDY    51  50  96 CALM      30.03S FOG
LONE ROCK      NOT AVBL
PLATTEVILLE    CLOUDY    50  49  98 SE5       30.04F VSB 1/4
FORT MC COY    CLOUDY    48  48  99 CALM      30.02S FOG
CAMP DOUGLAS   FOG       46  46 100 SE3       30.02S VSB 1
VIROQUA        CLOUDY    48  48 100 S3        30.00F VSB 1/4
WIS DELLS      FOG       46  45  95 CALM      30.03F VSB 1/4
$$

...ELSEWHERE IN WISCONSIN...


CITY           SKY/WX    TMP DP  RH WIND       PRES   REMARKS
MILWAUKEE      CLOUDY    51  49  92 W6        30.04S FOG
MADISON        FOG       49  48  97 CALM      30.03F VSB 1
GREEN BAY      CLOUDY    48  47  96 SW5       30.02S FOG
EAU CLAIRE     NOT AVBL
BLACK RVR FLS  FOG       49  49 100 CALM      30.00S VSB 3/4
MEDFORD        FOG       43  43 100 S3        30.00S VSB 1/4
WAUSAU         FOG       44  44 100 W5        30.00S VSB 3/4
WIS RAPIDS     FOG       46  46 100 S5        30.04R VSB 1/2
MARSHFIELD     FOG       46  45  96 S3        30.00S VSB 1/4
RICE LAKE      CLOUDY    49  47  94 SE7       29.97F FOG
$$

...NORTHEAST IOWA...


CITY           SKY/WX    TMP DP  RH WIND       PRES   REMARKS
DECORAH        FOG       50  50 100 VRB5      30.00R VSB<1/4
MASON CITY     PTCLDY    45  44  97 SE6       29.95  FOG
CHARLES CITY   FOG       46  46 100 SE7       29.98F VSB<1/4
OELWEIN        FOG       48  48 100 SE5       30.01S VSB<1/4
$$

...ELSEWHERE IN IOWA...


CITY           SKY/WX    TMP DP  RH WIND       PRES   REMARKS
DES MOINES     FOG       59  57  93 S9        29.98F VSB 1/8
IOWA CITY      FOG       47  47 100 S7        30.05F VSB 1/4
FORT DODGE     PTCLDY    54  48  82 S6        29.93F
$$

...NORTHERN ILLINOIS...


CITY           SKY/WX    TMP DP  RH WIND       PRES   REMARKS
CHICAGO-OHARE  CLOUDY    53  45  74 W3        30.04F
CHICAGO-MIDWAY CLOUDY    55  46  71 SW5       30.05S
MOLINE         FOG       50  49  96 E3        30.05F VSB 3/4
ROCKFORD       FOG       47  45  93 CALM      30.08S VSB 1
PEORIA         PTCLDY    46  42  86 CALM      30.08R FOG
$$

NOTE: "FAIR" INDICATES FEW OR NO CLOUDS BELOW 12,000 FEET WITH NO
SIGNIFICANT WEATHER AND/OR OBSTRUCTIONS TO VISIBILITY. WIND
SPEEDS ARE IN MILES-PER-HOUR.



USA.gov is the U.S. government's official web portal to all federal, state and local government web resources and services.